Wind_Speed
18 19 20 20 21 22 22 23 21 20 18 19 20 22 22 22 23 23 24 24 25 26 27 27 28 28 29 29 29 29 28 28 27 27 28 28 29 29 29 30 30 30 30
18 19 20 21 21 22 24 23 21 20 20 21 21 22 23 23 24 24 25 25 26 27 27 27 28 28 29 29 29 28 27 26 26 26 26 26 28 28 27 27 28 29 29
20 21 22 23 23 23 23 22 20 21 22 23 23 23 24 23 24 25 25 25 25 26 26 27 27 28 28 28 27 27 27 26 26 26 26 26 26 25 25 26 27 27 28
21 22 23 23 24 24 23 21 21 22 22 22 23 23 24 24 24 24 25 26 26 26 27 27 28 28 28 27 26 25 25 26 26 26 26 26 25 25 24 25 26 26 26
21 22 23 23 23 23 22 22 23 24 23 23 23 23 24 23 24 24 25 26 26 26 26 26 27 27 26 26 25 24 24 25 24 25 25 25 24 24 23 23 24 25 26
21 22 22 22 22 23 23 24 24 24 23 23 23 23 24 24 24 25 25 25 25 25 25 25 25 25 24 24 24 24 24 23 23 24 24 24 24 24 23 23 23 24 26
21 22 21 22 22 23 24 24 24 24 23 24 24 24 24 24 25 25 25 25 25 24 24 24 24 24 24 24 24 23 23 23 23 24 24 24 24 23 23 23 24 24 25
21 21 21 22 22 23 24 24 24 25 24 24 24 24 25 25 25 25 25 25 24 23 23 23 23 23 23 23 23 23 23 23 23 23 24 24 23 23 23 23 24 24 24
22 21 21 21 22 23 23 23 23 25 25 25 24 25 25 24 24 24 24 24 23 23 23 22 23 22 22 22 22 22 21 22 22 23 23 23 23 23 23 23 23 24 24
21 21 21 22 23 23 23 23 23 22 23 23 24 24 24 24 23 23 24 23 22 22 22 22 22 22 22 22 22 22 22 22 22 22 22 23 23 23 23 22 23 23 23
21 21 22 23 22 22 23 23 22 22 22 22 21 22 23 23 23 23 23 22 21 21 22 22 22 22 22 22 22 22 23 23 22 22 22 21 21 22 22 22 22 22 22
21 22 23 22 22 22 22 23 23 22 22 21 21 22 22 22 23 23 23 22 22 22 22 21 21 21 21 21 22 22 22 21 21 21 21 21 21 21 22 22 22 22 22
21 22 22 22 22 22 22 23 22 22 22 22 22 22 23 22 22 22 22 22 22 22 22 21 20 20 19 20 20 20 20 20 20 20 20 20 20 21 22 22 22 22 21
21 21 20 21 22 22 22 22 22 22 22 22 22 22 22 22 22 22 22 21 21 21 21 20 19 19 19 19 20 20 20 20 20 20 19 19 19 20 20 21 21 21 21
21 21 21 21 21 21 22 22 22 22 22 22 22 22 22 21 21 21 21 21 21 20 20 19 19 18 19 19 20 20 20 20 19 18 18 18 19 20 20 20 19 20 19
22 20 20 21 22 22 22 21 21 21 22 22 21 21 21 21 21 21 21 21 20 19 19 18 18 18 19 20 20 20 20 19 19 18 18 18 18 19 19 19 20 20 19
22 21 21 21 21 21 21 21 21 21 21 21 21 21 21 21 21 20 20 20 20 19 19 18 18 19 19 19 19 19 19 19 18 18 18 18 18 19 19 19 19 19 19
22 21 22 22 21 21 21 21 21 20 20 21 20 20 20 20 20 20 20 20 19 19 20 19 19 18 18 19 18 18 18 19 18 18 18 18 19 19 19 19 19 19 19
22 22 22 21 21 22 21 21 20 19 20 20 20 19 20 20 20 21 20 20 19 19 19 18 18 17 17 17 18 18 19 19 19 19 19 19 19 19 19 19 19 19 19
23 23 22 22 22 22 21 20 19 19 20 19 19 19 19 20 20 20 20 19 19 19 18 17 17 17 17 17 18 19 20 20 20 20 20 20 20 20 20 19 19 20 20
24 23 22 22 22 21 21 20 19 18 19 18 18 18 19 19 20 20 19 19 18 17 17 16 16 16 17 17 18 19 19 20 20 20 21 21 20 20 19 20 20 21 21
23 22 21 22 21 20 19 18 17 16 16 16 17 18 19 19 19 18 18 18 17 15 15 15 15 15 17 17 17 18 19 19 20 20 20 20 20 20 19 20 21 21 21
22 22 21 21 20 19 19 17 16 15 15 16 17 17 17 18 17 17 16 16 15 14 13 13 14 15 16 16 18 19 19 20 20 20 20 20 20 20 20 20 21 22 21
22 22 22 21 20 19 18 17 16 16 16 17 17 15 16 16 16 16 15 14 13 13 13 13 14 15 16 17 18 19 19 20 20 19 20 20 19 19 19 20 21 21 21
21 22 21 20 19 18 17 16 16 16 16 15 14 14 14 14 14 13 13 12 12 13 13 13 15 17 18 18 18 18 19 19 20 19 20 20 20 20 20 21 20 20 21
20 20 19 18 18 17 16 16 15 15 14 14 13 13 13 13 12 12 12 12 13 13 14 14 16 17 17 18 18 19 20 20 21 20 21 20 20 20 20 21 21 20 21
Wind_Direction
285 287 289 290 292 291 292 291 291 290 289 290 291 293 294 295 298 299 297 296 297 298 298 297 297 296 296 296 296 295 293 291 288 286 283 282 281 281 281 278 276 274 271
286 287 289 290 294 294 293 292 291 292 292 292 293 294 293 293 295 297 297 297 298 298 298 298 298 297 297 296 296 295 294 292 291 289 286 282 281 282 280 278 277 275 275
289 287 289 291 292 293 293 293 294 297 297 293 292 293 294 292 293 296 297 298 299 299 301 301 300 299 298 296 294 294 293 293 292 291 288 283 281 282 282 280 279 278 277
290 291 292 291 291 292 295 295 297 298 296 294 294 296 296 292 296 297 298 299 299 299 299 299 301 300 299 297 294 292 292 292 291 291 291 287 284 283 282 282 282 282 280
293 295 295 294 292 293 296 295 296 296 296 297 295 294 295 295 299 298 298 298 299 299 299 300 302 302 300 298 296 294 293 292 290 290 290 288 287 287 285 282 282 283 282
295 296 296 296 296 295 295 294 295 295 296 296 294 294 296 298 300 299 299 298 299 300 300 300 301 301 300 299 297 297 294 295 292 290 290 289 290 290 288 285 283 284 283
297 297 297 298 297 297 297 294 294 295 295 295 293 294 296 299 300 300 299 298 299 299 300 300 301 301 301 301 299 299 298 295 294 292 291 290 291 291 290 288 286 285 285
298 298 299 298 297 298 297 296 294 294 292 293 292 294 296 299 302 302 300 298 299 300 301 300 302 303 303 302 301 299 298 296 294 293 292 292 292 292 292 291 289 288 287
298 298 299 297 298 299 298 298 300 295 291 291 293 298 300 302 304 304 303 301 300 302 302 302 303 303 303 303 303 301 299 299 296 294 294 294 294 294 294 293 292 290 290
299 298 299 297 300 301 302 302 305 306 299 296 297 299 302 305 306 306 306 304 301 301 302 303 303 303 303 302 302 301 301 301 299 297 297 297 296 298 296 294 293 292 290
300 302 302 299 299 302 303 307 306 307 307 305 303 302 304 305 306 307 306 306 304 304 305 304 302 302 301 302 303 303 303 302 301 300 298 298 299 300 297 296 295 293 293
303 302 303 300 300 304 307 308 306 306 306 304 305 305 305 306 306 306 305 305 305 307 307 305 304 304 303 303 303 304 305 302 301 301 300 300 300 299 299 300 299 297 295
306 304 302 301 301 304 306 306 305 305 305 305 304 305 306 307 307 306 306 307 307 307 306 305 306 306 306 307 306 305 304 303 304 303 303 303 302 302 301 301 301 300 298
307 305 306 304 302 302 304 305 304 304 305 306 305 305 305 306 307 308 308 307 307 307 307 307 306 307 309 309 308 306 306 305 305 305 305 303 303 304 304 304 304 304 301
306 303 304 304 304 304 304 305 305 305 305 306 306 305 306 306 308 310 311 311 310 310 310 309 308 309 312 313 311 306 307 307 306 306 305 304 303 306 306 305 305 305 305
307 305 304 303 304 305 305 307 307 306 307 307 307 306 305 306 306 308 309 309 310 312 311 309 309 309 310 311 311 310 308 307 308 307 305 305 303 306 308 308 307 307 307
309 307 306 305 306 307 309 309 307 306 307 308 308 307 305 303 304 305 307 307 306 308 308 308 306 308 309 311 312 311 309 309 309 307 308 309 306 306 307 308 308 308 309
309 309 309 309 309 311 311 309 308 307 307 309 309 308 307 306 306 307 306 305 305 306 307 305 307 310 311 313 312 311 312 312 310 308 308 308 308 307 306 308 308 306 307
310 309 310 310 310 310 311 310 309 308 310 311 310 310 309 308 309 311 310 306 306 308 306 307 309 311 313 313 313 314 314 313 312 310 309 309 307 307 306 305 306 306 307
308 309 309 309 310 311 311 310 308 309 310 311 310 312 313 312 313 314 314 311 310 309 308 309 311 315 314 314 316 318 317 316 315 312 312 311 310 308 307 307 305 305 307
306 306 307 307 309 310 310 311 312 311 310 311 313 316 317 316 315 315 315 314 315 315 315 312 313 316 317 318 320 320 320 319 318 316 315 315 314 311 308 308 308 307 307
305 305 306 307 308 308 309 309 312 311 312 314 316 319 320 320 318 316 316 317 319 321 320 317 317 317 320 322 323 324 323 322 321 320 319 318 318 315 312 312 312 312 311
304 304 305 306 306 308 307 305 306 307 310 313 316 319 322 323 321 320 319 321 323 326 325 322 321 321 325 326 326 328 327 326 325 324 323 321 320 321 318 316 315 314 313
303 303 304 304 304 306 306 306 306 306 308 312 316 319 322 324 324 324 322 326 329 330 330 327 325 326 328 329 330 331 330 330 329 328 329 327 325 323 322 320 319 317 315
303 303 304 305 306 308 308 309 309 309 312 314 316 318 321 322 325 328 328 331 333 333 333 332 329 330 331 332 333 333 333 333 334 333 332 330 327 324 322 324 323 321 319
306 306 309 311 312 311 310 309 308 307 310 312 316 318 320 322 327 333 334 337 338 337 336 333 331 334 336 335 335 337 336 334 333 331 331 331 328 327 326 326 325 324 322
Height
5838 5837 5836 5834 5833 5831 5829 5827 5826 5825 5824 5822 5821 5819 5817 5815 5813 5811 5808 5806 5804 5801 5798 5796 5793 5790 5787 5785 5782 5780 5777 5775 5773 5772 5771 5770 5768 5767 5766 5765 5765 5764 5763
5834 5832 5831 5830 5828 5826 5824 5822 5820 5818 5818 5817 5815 5813 5811 5809 5807 5805 5802 5800 5797 5795 5792 5789 5786 5783 5780 5778 5775 5773 5771 5769 5767 5766 5764 5763 5762 5760 5759 5758 5757 5757 5756
5829 5827 5826 5824 5822 5821 5819 5816 5815 5813 5812 5811 5809 5807 5805 5803 5801 5799 5797 5794 5791 5788 5785 5782 5779 5776 5773 5771 5768 5766 5764 5762 5760 5759 5758 5757 5756 5754 5752 5751 5750 5749 5748
5824 5823 5821 5819 5817 5816 5814 5812 5810 5809 5807 5805 5804 5802 5800 5798 5796 5793 5791 5788 5785 5782 5779 5776 5773 5769 5766 5764 5762 5759 5758 5756 5754 5752 5751 5750 5748 5747 5746 5744 5743 5742 5741
5820 5818 5816 5814 5812 5810 5809 5807 5806 5804 5802 5800 5798 5796 5794 5792 5790 5788 5785 5782 5779 5776 5773 5770 5767 5763 5761 5758 5756 5754 5752 5750 5748 5746 5745 5743 5741 5740 5740 5739 5737 5735 5734
5815 5813 5811 5809 5807 5806 5804 5802 5800 5798 5796 5795 5793 5791 5789 5787 5785 5782 5778 5775 5772 5770 5767 5763 5761 5758 5755 5752 5750 5748 5746 5744 5742 5740 5739 5737 5736 5734 5733 5732 5730 5729 5727
5810 5808 5806 5804 5803 5801 5799 5796 5794 5793 5791 5789 5787 5785 5783 5781 5778 5775 5772 5769 5767 5764 5761 5758 5755 5752 5749 5747 5744 5742 5740 5738 5736 5735 5733 5731 5729 5727 5726 5725 5724 5722 5721
5805 5803 5802 5799 5798 5796 5793 5791 5789 5787 5785 5783 5781 5779 5777 5774 5771 5769 5766 5763 5760 5757 5754 5752 5749 5746 5744 5741 5739 5737 5735 5732 5730 5729 5727 5725 5723 5721 5719 5718 5717 5715 5714
5800 5799 5797 5795 5793 5791 5788 5786 5782 5780 5778 5776 5774 5773 5770 5768 5765 5762 5759 5757 5754 5751 5748 5746 5743 5741 5738 5736 5734 5731 5729 5727 5725 5723 5721 5719 5717 5715 5713 5711 5710 5708 5707
5796 5794 5792 5790 5788 5786 5783 5781 5778 5774 5772 5771 5769 5767 5765 5762 5759 5756 5753 5750 5748 5745 5742 5740 5737 5735 5733 5731 5728 5726 5723 5721 5719 5717 5715 5713 5711 5709 5707 5705 5703 5701 5699
5792 5789 5787 5785 5783 5781 5779 5776 5773 5770 5768 5766 5764 5762 5759 5756 5753 5750 5748 5745 5742 5739 5736 5734 5731 5729 5727 5725 5723 5720 5718 5715 5713 5711 5709 5707 5705 5703 5701 5699 5697 5695 5693
5787 5785 5783 5780 5779 5776 5774 5771 5769 5766 5764 5761 5759 5756 5754 5751 5748 5745 5742 5740 5737 5734 5731 5728 5725 5723 5721 5719 5717 5714 5712 5709 5707 5705 5703 5701 5699 5697 5695 5692 5690 5688 5686
5783 5781 5778 5776 5773 5771 5769 5767 5764 5762 5759 5757 5754 5751 5749 5746 5743 5740 5737 5734 5731 5728 5725 5723 5720 5718 5715 5713 5711 5709 5706 5704 5702 5699 5697 5695 5693 5691 5689 5686 5684 5682 5680
5779 5776 5774 5771 5769 5766 5764 5762 5759 5757 5754 5752 5749 5746 5744 5741 5738 5735 5732 5729 5726 5723 5720 5717 5714 5713 5710 5708 5706 5704 5701 5699 5697 5694 5692 5690 5688 5685 5683 5680 5678 5676 5674
5774 5772 5769 5766 5764 5761 5759 5757 5754 5751 5749 5746 5744 5741 5739 5736 5733 5730 5727 5724 5721 5717 5714 5712 5710 5708 5706 5703 5701 5699 5697 5694 5692 5689 5687 5685 5683 5680 5678 5675 5673 5671 5669
5770 5766 5764 5761 5759 5756 5754 5751 5749 5746 5744 5741 5738 5736 5733 5731 5728 5725 5722 5719 5716 5713 5710 5708 5706 5704 5701 5699 5696 5694 5692 5689 5687 5685 5682 5680 5678 5676 5673 5670 5668 5666 5664
5765 5762 5759 5757 5754 5751 5748 5746 5744 5741 5738 5736 5733 5731 5729 5726 5723 5720 5718 5715 5712 5709 5706 5703 5701 5699 5697 5694 5692 5689 5687 5684 5682 5680 5677 5675 5673 5671 5668 5666 5663 5661 5658
5760 5757 5754 5751 5749 5746 5744 5741 5738 5736 5733 5731 5729 5726 5724 5721 5718 5715 5713 5710 5707 5704 5702 5699 5697 5694 5692 5690 5688 5685 5682 5679 5677 5675 5673 5671 5668 5666 5663 5660 5658 5656 5653
5755 5752 5750 5747 5744 5741 5739 5736 5733 5731 5729 5726 5724 5721 5719 5716 5713 5710 5708 5704 5702 5699 5697 5694 5692 5690 5688 5686 5683 5681 5678 5675 5673 5670 5668 5665 5663 5661 5658 5655 5653 5650 5648
5750 5747 5745 5741 5739 5736 5733 5731 5728 5726 5724 5722 5719 5717 5714 5711 5708 5705 5703 5700 5697 5694 5692 5690 5688 5685 5683 5681 5679 5676 5673 5671 5668 5665 5663 5660 5657 5655 5652 5650 5647 5645 5642
5745 5742 5739 5736 5734 5731 5728 5726 5724 5722 5720 5717 5715 5712 5709 5706 5704 5701 5698 5695 5692 5690 5687 5686 5684 5682 5679 5677 5675 5672 5669 5666 5663 5660 5657 5655 5652 5649 5646 5644 5641 5639 5636
5740 5737 5734 5731 5728 5726 5724 5722 5720 5718 5715 5713 5711 5708 5705 5702 5700 5697 5694 5691 5689 5686 5684 5682 5681 5679 5676 5674 5671 5668 5665 5662 5659 5655 5652 5649 5647 5644 5641 5639 5636 5633 5630
5734 5731 5728 5726 5723 5721 5719 5717 5716 5714 5711 5709 5707 5704 5702 5699 5696 5693 5691 5688 5686 5684 5681 5679 5678 5676 5673 5671 5668 5664 5661 5658 5654 5651 5648 5645 5642 5639 5636 5633 5630 5627 5625
5729 5726 5723 5721 5719 5717 5715 5713 5711 5709 5707 5705 5703 5701 5698 5696 5693 5691 5688 5686 5684 5681 5679 5677 5675 5673 5670 5668 5665 5661 5658 5654 5650 5647 5644 5641 5637 5634 5631 5628 5625 5622 5619
5724 5721 5718 5716 5715 5713 5711 5709 5707 5705 5703 5701 5699 5697 5695 5693 5690 5688 5686 5684 5681 5679 5677 5675 5673 5670 5668 5665 5661 5657 5654 5650 5647 5643 5640 5636 5633 5630 5627 5623 5620 5617 5614
5719 5717 5714 5712 5711 5709 5707 5705 5703 5701 5700 5698 5696 5694 5692 5690 5688 5686 5684 5682 5680 5677 5675 5673 5670 5667 5664 5661 5658 5654 5650 5647 5643 5640 5636 5632 5629 5625 5622 5619 5615 5612 5609